YF9UAG-16 Weather Reports


time (UTC)temp
C
wind
direction
speed
KPH
gust
KPH
rain 1hr
cm
rain 24hr
cm
rain mn
cm
humidity
%
barometer
mb
20260506081442 29 0 0.0 0.0 0.00 0.00 0.00 66 1007.0
20260506080920 30 0 0.0 0.0 0.00 0.00 0.00 65 1006.0
20260506080358 30 0 0.0 0.0 0.00 0.00 0.00 65 1006.0
20260506073146 30 0 0.0 0.0 0.00 0.00 0.00 61 1006.0
20260506072624 30 0 0.0 0.0 0.00 0.00 0.00 64 1006.0
20260506072102 30 0 0.0 0.0 0.00 0.00 0.00 62 1006.0
20260506071540 30 0 0.0 0.0 0.00 0.00 0.00 60 1006.0
20260506071018 30 0 0.0 0.0 0.00 0.00 0.00 60 1006.0
20260506070456 30 0 0.0 0.0 0.00 0.00 0.00 56 1006.0
20260506062200 34 0 0.0 0.0 0.00 0.00 0.00 35 1005.0
20260506061638 36 0 0.0 0.0 0.00 0.00 0.00 33 1005.0
20260506061116 38 0 0.0 0.0 0.00 0.00 0.00 29 1005.0
20260506060554 38 0 0.0 0.0 0.00 0.00 0.00 28 1005.0
20260506051214 38 0 0.0 0.0 0.00 0.00 0.00 33 1006.0
20260506050652 37 0 0.0 0.0 0.00 0.00 0.00 31 1006.0
20260506050130 37 0 0.0 0.0 0.00 0.00 0.00 32 1006.0
20260506045046 36 0 0.0 0.0 0.00 0.00 0.00 37 1006.0
20260506044524 36 0 0.0 0.0 0.00 0.00 0.00 39 1006.0
20260506044002 35 0 0.0 0.0 0.00 0.00 0.00 38 1006.0
20260506043440 36 0 0.0 0.0 0.00 0.00 0.00 41 1006.0
20260506042918 35 0 0.0 0.0 0.00 0.00 0.00 39 1006.0
20260506042356 35 0 0.0 0.0 0.00 0.00 0.00 41 1006.0
20260506041834 33 0 0.0 0.0 0.00 0.00 0.00 45 1006.0
20260506041312 35 0 0.0 0.0 0.00 0.00 0.00 44 1006.0
20260506040750 35 0 0.0 0.0 0.00 0.00 0.00 43 1006.0
20260506040228 34 0 0.0 0.0 0.00 0.00 0.00 48 1007.0
20260506035706 33 0 0.0 0.0 0.00 0.00 0.00 50 1007.0
20260506035144 32 0 0.0 0.0 0.00 0.00 0.00 51 1007.0
20260506034622 31 0 0.0 0.0 0.00 0.00 0.00 55 1007.0
20260506034100 31 0 0.0 0.0 0.00 0.00 0.00 56 1007.0
20260506033538 31 0 0.0 0.0 0.00 0.00 0.00 58 1007.0
20260506033016 30 0 0.0 0.0 0.00 0.00 0.00 57 1007.0
20260506032454 30 0 0.0 0.0 0.00 0.00 0.00 58 1007.0
20260506031932 30 0 0.0 0.0 0.00 0.00 0.00 59 1007.0
20260506031410 30 0 0.0 0.0 0.00 0.00 0.00 57 1007.0
20260506030848 30 0 0.0 0.0 0.00 0.00 0.00 58 1007.0
20260506030326 30 0 0.0 0.0 0.00 0.00 0.00 58 1008.0
20260506025804 29 0 0.0 0.0 0.00 0.00 0.00 59 1008.0
20260506025242 28 0 0.0 0.0 0.00 0.00 0.00 62 1008.0
20260506024720 29 0 0.0 0.0 0.00 0.00 0.00 61 1008.0
20260506024158 28 0 0.0 0.0 0.00 0.00 0.00 62 1008.0
20260506023636 29 0 0.0 0.0 0.00 0.00 0.00 62 1008.0
20260506023114 28 0 0.0 0.0 0.00 0.00 0.00 62 1008.0
20260506022552 28 0 0.0 0.0 0.00 0.00 0.00 63 1008.0
20260506022030 28 0 0.0 0.0 0.00 0.00 0.00 62 1008.0
20260506021508 28 0 0.0 0.0 0.00 0.00 0.00 63 1008.0
20260506020946 27 0 0.0 0.0 0.00 0.00 0.00 64 1008.0
20260506020424 27 0 0.0 0.0 0.00 0.00 0.00 65 1009.0
20260506015902 27 0 0.0 0.0 0.00 0.00 0.00 64 1009.0
20260506015340 27 0 0.0 0.0 0.00 0.00 0.00 63 1009.0
20260506014818 28 0 0.0 0.0 0.00 0.00 0.00 62 1009.0
20260506014256 27 0 0.0 0.0 0.00 0.00 0.00 64 1009.0
20260506013734 28 0 0.0 0.0 0.00 0.00 0.00 65 1009.0
20260506013212 28 0 0.0 0.0 0.00 0.00 0.00 67 1009.0
20260506012650 28 0 0.0 0.0 0.00 0.00 0.00 67 1009.0
20260506012128 28 0 0.0 0.0 0.00 0.00 0.00 67 1009.0
20260506011606 28 0 0.0 0.0 0.00 0.00 0.00 68 1009.0
20260506011044 28 0 0.0 0.0 0.00 0.00 0.00 69 1009.0
20260506010522 28 0 0.0 0.0 0.00 0.00 0.00 69 1010.0
20260506010000 28 0 0.0 0.0 0.00 0.00 0.00 70 1010.0
20260506005438 28 0 0.0 0.0 0.00 0.00 0.00 70 1010.0
20260506004916 28 0 0.0 0.0 0.00 0.00 0.00 69 1010.0
20260506004354 28 0 0.0 0.0 0.00 0.00 0.00 70 1010.0
20260506003832 27 0 0.0 0.0 0.00 0.00 0.00 71 1010.0
20260506003310 28 0 0.0 0.0 0.00 0.00 0.00 70 1010.0
20260506002748 27 0 0.0 0.0 0.00 0.00 0.00 71 1010.0
20260506002226 28 0 0.0 0.0 0.00 0.00 0.00 71 1010.0
20260506001704 27 0 0.0 0.0 0.00 0.00 0.00 72 1010.0
20260506001142 28 0 0.0 0.0 0.00 0.00 0.00 71 1010.0
20260506000620 28 0 0.0 0.0 0.00 0.00 0.00 73 1010.0
20260506000058 28 0 0.0 0.0 0.00 0.00 0.00 74 1011.0
20260505235536 28 0 0.0 0.0 0.00 0.00 0.00 80 1011.0
20260505235014 28 0 0.0 0.0 0.00 0.00 0.00 80 1011.0
20260505234452 28 0 0.0 0.0 0.00 0.00 0.00 78 1011.0
20260505233930 28 0 0.0 0.0 0.00 0.00 0.00 79 1011.0
20260505233408 28 0 0.0 0.0 0.00 0.00 0.00 81 1011.0
20260505232846 28 0 0.0 0.0 0.00 0.00 0.00 79 1011.0
20260505232324 28 0 0.0 0.0 0.00 0.00 0.00 78 1011.0
20260505231802 28 0 0.0 0.0 0.00 0.00 0.00 82 1011.0
20260505231240 28 0 0.0 0.0 0.00 0.00 0.00 80 1011.0
20260505230718 28 0 0.0 0.0 0.00 0.00 0.00 77 1011.0
20260505230156 28 0 0.0 0.0 0.00 0.00 0.00 82 1011.0
20260505225634 28 0 0.0 0.0 0.00 0.00 0.00 83 1011.0
20260505225112 27 0 0.0 0.0 0.00 0.00 0.00 81 1011.0
20260505224550 27 0 0.0 0.0 0.00 0.00 0.00 78 1011.0
20260505224028 27 0 0.0 0.0 0.00 0.00 0.00 86 1011.0
20260505223506 27 0 0.0 0.0 0.00 0.00 0.00 85 1011.0
20260505222944 27 0 0.0 0.0 0.00 0.00 0.00 83 1010.0
20260505222422 27 0 0.0 0.0 0.00 0.00 0.00 81 1010.0
20260505221900 27 0 0.0 0.0 0.00 0.00 0.00 88 1010.0
20260505221338 27 0 0.0 0.0 0.00 0.00 0.00 87 1010.0
20260505220816 27 0 0.0 0.0 0.00 0.00 0.00 86 1010.0
20260505220254 27 0 0.0 0.0 0.00 0.00 0.00 83 1010.0
20260505215732 26 0 0.0 0.0 0.00 0.00 0.00 81 1010.0
20260505215210 27 0 0.0 0.0 0.00 0.00 0.00 86 1010.0
20260505214648 27 0 0.0 0.0 0.00 0.00 0.00 85 1010.0
20260505214126 27 0 0.0 0.0 0.00 0.00 0.00 85 1010.0
20260505213604 27 0 0.0 0.0 0.00 0.00 0.00 84 1010.0
20260505213042 26 0 0.0 0.0 0.00 0.00 0.00 82 1010.0
20260505212520 27 0 0.0 0.0 0.00 0.00 0.00 87 1010.0
20260505211958 27 0 0.0 0.0 0.00 0.00 0.00 87 1010.0
20260505204814 27 0 0.0 0.0 0.00 0.00 0.00 86 1010.0
20260505204252 27 0 0.0 0.0 0.00 0.00 0.00 83 1010.0
20260505203730 26 0 0.0 0.0 0.00 0.00 0.00 82 1010.0
20260505203208 27 0 0.0 0.0 0.00 0.00 0.00 85 1010.0
20260505202646 27 0 0.0 0.0 0.00 0.00 0.00 85 1010.0
20260505202124 27 0 0.0 0.0 0.00 0.00 0.00 85 1010.0
20260505201602 27 0 0.0 0.0 0.00 0.00 0.00 85 1010.0
20260505201040 27 0 0.0 0.0 0.00 0.00 0.00 85 1010.0
20260505200518 27 0 0.0 0.0 0.00 0.00 0.00 85 1009.0
20260505195956 27 0 0.0 0.0 0.00 0.00 0.00 85 1009.0
20260505195434 27 0 0.0 0.0 0.00 0.00 0.00 85 1009.0
20260505194912 27 0 0.0 0.0 0.00 0.00 0.00 85 1009.0
20260505194350 27 0 0.0 0.0 0.00 0.00 0.00 85 1009.0
20260505193828 27 0 0.0 0.0 0.00 0.00 0.00 85 1009.0
20260505193306 27 0 0.0 0.0 0.00 0.00 0.00 85 1009.0
20260505192744 27 0 0.0 0.0 0.00 0.00 0.00 85 1009.0
20260505192222 27 0 0.0 0.0 0.00 0.00 0.00 85 1009.0
20260505191700 27 0 0.0 0.0 0.00 0.00 0.00 85 1009.0
20260505191138 27 0 0.0 0.0 0.00 0.00 0.00 85 1009.0
20260505190616 27 0 0.0 0.0 0.00 0.00 0.00 85 1009.0
20260505190054 27 0 0.0 0.0 0.00 0.00 0.00 85 1008.0
20260505185532 27 0 0.0 0.0 0.00 0.00 0.00 85 1009.0
20260505185010 27 0 0.0 0.0 0.00 0.00 0.00 85 1009.0
20260505184448 27 0 0.0 0.0 0.00 0.00 0.00 85 1009.0
20260505183926 27 0 0.0 0.0 0.00 0.00 0.00 85 1009.0
20260505183404 27 0 0.0 0.0 0.00 0.00 0.00 85 1009.0
20260505182842 27 0 0.0 0.0 0.00 0.00 0.00 85 1008.0
20260505182320 27 0 0.0 0.0 0.00 0.00 0.00 85 1008.0
20260505181758 27 0 0.0 0.0 0.00 0.00 0.00 84 1008.0
20260505181236 27 0 0.0 0.0 0.00 0.00 0.00 84 1008.0
20260505180714 27 0 0.0 0.0 0.00 0.00 0.00 85 1008.0
20260505180152 27 0 0.0 0.0 0.00 0.00 0.00 85 1008.0
20260505175630 27 0 0.0 0.0 0.00 0.00 0.00 84 1008.0
20260505175108 27 0 0.0 0.0 0.00 0.00 0.00 84 1008.0
20260505174546 27 0 0.0 0.0 0.00 0.00 0.00 84 1009.0
20260505174024 27 0 0.0 0.0 0.00 0.00 0.00 84 1009.0
20260505173502 27 0 0.0 0.0 0.00 0.00 0.00 84 1009.0
20260505172940 27 0 0.0 0.0 0.00 0.00 0.00 84 1009.0
20260505172418 27 0 0.0 0.0 0.00 0.00 0.00 84 1009.0
20260505171856 27 0 0.0 0.0 0.00 0.00 0.00 84 1009.0
20260505171334 27 0 0.0 0.0 0.00 0.00 0.00 84 1009.0
20260505170812 27 0 0.0 0.0 0.00 0.00 0.00 84 1008.0
20260505170250 27 0 0.0 0.0 0.00 0.00 0.00 84 1008.0
20260505165728 27 0 0.0 0.0 0.00 0.00 0.00 84 1008.0
20260505165206 27 0 0.0 0.0 0.00 0.00 0.00 84 1008.0
20260505164644 27 0 0.0 0.0 0.00 0.00 0.00 84 1008.0
20260505164122 27 0 0.0 0.0 0.00 0.00 0.00 84 1009.0
20260505163600 27 0 0.0 0.0 0.00 0.00 0.00 84 1009.0
20260505163038 27 0 0.0 0.0 0.00 0.00 0.00 84 1009.0
20260505162516 27 0 0.0 0.0 0.00 0.00 0.00 84 1009.0
20260505161954 27 0 0.0 0.0 0.00 0.00 0.00 84 1009.0
20260505161432 27 0 0.0 0.0 0.00 0.00 0.00 84 1009.0
20260505160910 27 0 0.0 0.0 0.00 0.00 0.00 84 1009.0
20260505160348 27 0 0.0 0.0 0.00 0.00 0.00 84 1009.0
20260505153136 27 0 0.0 0.0 0.00 0.00 0.00 83 1009.0
20260505152614 27 0 0.0 0.0 0.00 0.00 0.00 83 1009.0
20260505152052 28 0 0.0 0.0 0.00 0.00 0.00 83 1009.0
20260505151530 28 0 0.0 0.0 0.00 0.00 0.00 83 1010.0
20260505151008 28 0 0.0 0.0 0.00 0.00 0.00 82 1010.0
20260505150446 28 0 0.0 0.0 0.00 0.00 0.00 82 1010.0
20260505140518 28 0 0.0 0.0 0.00 0.00 0.00 81 1010.0
20260505125010 28 0 0.0 0.0 0.00 0.00 0.00 77 1010.0
20260505124448 28 0 0.0 0.0 0.00 0.00 0.00 77 1010.0
20260505123926 28 0 0.0 0.0 0.00 0.00 0.00 76 1010.0
20260505123404 28 0 0.0 0.0 0.00 0.00 0.00 77 1010.0
20260505122842 28 0 0.0 0.0 0.00 0.00 0.00 77 1010.0
20260505122320 28 0 0.0 0.0 0.00 0.00 0.00 77 1010.0
20260505121758 28 0 0.0 0.0 0.00 0.00 0.00 77 1010.0
20260505121236 28 0 0.0 0.0 0.00 0.00 0.00 76 1010.0
20260505120714 28 0 0.0 0.0 0.00 0.00 0.00 76 1010.0
20260505120152 28 0 0.0 0.0 0.00 0.00 0.00 75 1010.0
20260505115630 28 0 0.0 0.0 0.00 0.00 0.00 73 1010.0
20260505115108 28 0 0.0 0.0 0.00 0.00 0.00 74 1010.0
20260505114546 28 0 0.0 0.0 0.00 0.00 0.00 74 1010.0
20260505114024 28 0 0.0 0.0 0.00 0.00 0.00 73 1010.0
20260505113502 28 0 0.0 0.0 0.00 0.00 0.00 74 1010.0
20260505112940 28 0 0.0 0.0 0.00 0.00 0.00 75 1010.0
20260505112418 28 0 0.0 0.0 0.00 0.00 0.00 73 1010.0
20260505111856 28 0 0.0 0.0 0.00 0.00 0.00 73 1010.0
20260505111334 28 0 0.0 0.0 0.00 0.00 0.00 74 1010.0
20260505110812 28 0 0.0 0.0 0.00 0.00 0.00 74 1010.0
20260505110250 28 0 0.0 0.0 0.00 0.00 0.00 74 1010.0
20260505101954 28 0 0.0 0.0 0.00 0.00 0.00 74 1009.0
20260505101432 28 0 0.0 0.0 0.00 0.00 0.00 74 1009.0
20260505100909 28 0 0.0 0.0 0.00 0.00 0.00 75 1009.0
20260505100348 28 0 0.0 0.0 0.00 0.00 0.00 79 1008.0
20260505095826 27 0 0.0 0.0 0.00 0.00 0.00 76 1008.0
20260505095305 28 0 0.0 0.0 0.00 0.00 0.00 78 1008.0
20260505094742 28 0 0.0 0.0 0.00 0.00 0.00 79 1008.0
20260505094220 27 0 0.0 0.0 0.00 0.00 0.00 77 1008.0
20260505093657 28 0 0.0 0.0 0.00 0.00 0.00 76 1008.0
20260505093136 28 0 0.0 0.0 0.00 0.00 0.00 78 1008.0
20260505092613 28 0 0.0 0.0 0.00 0.00 0.00 76 1008.0
20260505092052 27 0 0.0 0.0 0.00 0.00 0.00 74 1008.0
20260505091530 28 0 0.0 0.0 0.00 0.00 0.00 77 1008.0
20260505091007 28 0 0.0 0.0 0.00 0.00 0.00 76 1008.0
20260505090445 27 0 0.0 0.0 0.00 0.00 0.00 74 1008.0
20260505085923 28 0 0.0 0.0 0.00 0.00 0.00 77 1008.0
20260505085401 28 0 0.0 0.0 0.00 0.00 0.00 75 1008.0
20260505084839 28 0 0.0 0.0 0.00 0.00 0.00 73 1008.0
20260505084318 28 0 0.0 0.0 0.00 0.00 0.00 77 1008.0
20260505083756 28 0 0.0 0.0 0.00 0.00 0.00 77 1007.0
20260505083234 28 0 0.0 0.0 0.00 0.00 0.00 74 1007.0
20260505082712 28 0 0.0 0.0 0.00 0.00 0.00 76 1007.0
20260505082150 28 0 0.0 0.0 0.00 0.00 0.00 77 1007.0
20260505081627 28 0 0.0 0.0 0.00 0.00 0.00 77 1007.0